Time,TemperatureF,DewpointF,PressureIn,WindDirection,WindDirectionDegrees,WindSpeedMPH,WindSpeedGustMPH,Humidity,HourlyPrecipIn,Conditions,Clouds,dailyrainin,SoftwareType,DateUTC
2013-02-11 00:00:00,46.9,17.9,29.91,NE,55,0.0,0.0,31,0.00,,CLR,0.00,VWS V14.01,2013-02-11 08:00:00,
2013-02-11 00:05:00,47.5,18.4,29.91,NW,304,0.0,0.0,31,0.00,,CLR,0.00,VWS V14.01,2013-02-11 08:05:00,
2013-02-11 00:10:00,47.5,18.4,29.91,WNW,294,0.0,0.0,31,0.00,,CLR,0.00,VWS V14.01,2013-02-11 08:10:00,
2013-02-11 00:15:00,47.5,18.4,29.91,WNW,294,0.0,0.0,31,0.00,,CLR,0.00,VWS V14.01,2013-02-11 08:15:00,
2013-02-11 00:20:00,46.6,17.6,29.91,WNW,294,0.0,0.0,31,0.00,,CLR,0.00,VWS V14.01,2013-02-11 08:20:00,
2013-02-11 00:25:00,46.4,17.4,29.91,WNW,294,0.0,0.0,31,0.00,,CLR,0.00,VWS V14.01,2013-02-11 08:25:00,
2013-02-11 00:30:00,46.6,18.3,29.91,NE,45,0.0,0.0,32,0.00,,CLR,0.00,VWS V14.01,2013-02-11 08:30:00,
2013-02-11 00:35:00,46.6,18.3,29.91,ENE,58,0.0,0.0,32,0.00,,CLR,0.00,VWS V14.01,2013-02-11 08:35:00,
2013-02-11 00:40:00,46.6,18.3,29.91,ENE,58,0.0,0.0,32,0.00,,CLR,0.00,VWS V14.01,2013-02-11 08:40:00,
2013-02-11 00:45:00,46.6,18.3,29.91,ENE,68,0.0,0.0,32,0.00,,CLR,0.00,VWS V14.01,2013-02-11 08:45:00,
2013-02-11 00:50:00,48.6,18.5,29.91,ENE,68,0.0,0.0,30,0.00,,CLR,0.00,VWS V14.01,2013-02-11 08:50:00,
2013-02-11 00:55:00,48.7,17.9,29.91,ENE,68,0.0,0.0,29,0.00,,CLR,0.00,VWS V14.01,2013-02-11 08:55:00,
2013-02-11 01:00:00,48.7,17.9,29.91,ENE,68,0.0,0.0,29,0.00,,CLR,0.00,VWS V14.01,2013-02-11 09:00:00,
2013-02-11 01:05:00,48.7,17.9,29.91,ENE,68,0.0,0.0,29,0.00,,CLR,0.00,VWS V14.01,2013-02-11 09:05:00,
2013-02-11 01:10:00,48.4,17.6,29.91,SSW,205,0.0,0.0,29,0.00,,CLR,0.00,VWS V14.01,2013-02-11 09:10:00,
2013-02-11 01:15:00,47.7,17.0,29.91,ENE,68,0.0,0.0,29,0.00,,CLR,0.00,VWS V14.01,2013-02-11 09:15:00,
2013-02-11 01:20:00,47.7,17.0,29.91,ENE,76,0.0,0.0,29,0.00,,CLR,0.00,VWS V14.01,2013-02-11 09:20:00,
2013-02-11 01:25:00,48.4,16.8,29.91,ENE,76,0.0,0.0,28,0.00,,CLR,0.00,VWS V14.01,2013-02-11 09:25:00,
2013-02-11 01:30:00,48.4,16.8,29.94,ENE,76,0.0,0.0,28,0.00,,CLR,0.00,VWS V14.01,2013-02-11 09:30:00,
2013-02-11 01:35:00,49.6,17.9,29.94,ENE,76,0.0,0.0,28,0.00,,CLR,0.00,VWS V14.01,2013-02-11 09:35:00,
2013-02-11 01:40:00,49.8,18.0,29.94,ENE,76,0.0,0.0,28,0.00,,CLR,0.00,VWS V14.01,2013-02-11 09:40:00,
2013-02-11 01:45:00,49.5,17.7,29.94,ENE,76,0.0,0.0,28,0.00,,CLR,0.00,VWS V14.01,2013-02-11 09:45:00,
2013-02-11 01:50:00,49.5,17.7,29.94,ENE,76,0.0,0.0,28,0.00,,CLR,0.00,VWS V14.01,2013-02-11 09:50:00,
2013-02-11 01:55:00,49.5,17.7,29.94,ENE,76,0.0,0.0,28,0.00,,CLR,0.00,VWS V14.01,2013-02-11 09:55:00,
2013-02-11 02:00:00,49.5,17.7,29.91,ENE,76,0.0,0.0,28,0.00,,CLR,0.00,VWS V14.01,2013-02-11 10:00:00,
2013-02-11 02:05:00,48.9,16.4,29.91,ENE,76,0.0,0.0,27,0.00,,CLR,0.00,VWS V14.01,2013-02-11 10:05:00,
2013-02-11 02:10:00,49.1,16.6,29.91,ENE,76,0.0,0.0,27,0.00,,CLR,0.00,VWS V14.01,2013-02-11 10:10:00,
2013-02-11 02:15:00,49.1,16.6,29.91,ENE,76,0.0,0.0,27,0.00,,CLR,0.00,VWS V14.01,2013-02-11 10:15:00,
2013-02-11 02:20:00,49.5,16.9,29.91,ENE,76,0.0,0.0,27,0.00,,CLR,0.00,VWS V14.01,2013-02-11 10:20:00,
2013-02-11 02:25:00,49.3,16.7,29.91,ENE,76,0.0,0.0,27,0.00,,CLR,0.00,VWS V14.01,2013-02-11 10:25:00,
2013-02-11 02:30:00,49.3,16.7,29.91,NE,55,0.0,0.0,27,0.00,,CLR,0.00,VWS V14.01,2013-02-11 10:30:00,
2013-02-11 02:35:00,49.3,16.7,29.91,NE,55,0.0,0.0,27,0.00,,CLR,0.00,VWS V14.01,2013-02-11 10:35:00,
2013-02-11 02:40:00,48.7,16.3,29.91,ENE,57,0.0,0.0,27,0.00,,CLR,0.00,VWS V14.01,2013-02-11 10:40:00,
2013-02-11 02:45:00,48.7,16.3,29.94,ENE,57,0.0,0.0,27,0.00,,CLR,0.00,VWS V14.01,2013-02-11 10:45:00,
2013-02-11 02:50:00,49.3,16.7,29.94,ENE,57,0.0,0.0,27,0.00,,CLR,0.00,VWS V14.01,2013-02-11 10:50:00,
2013-02-11 02:55:00,49.3,16.7,29.94,ENE,63,0.0,0.0,27,0.00,,CLR,0.00,VWS V14.01,2013-02-11 10:55:00,
2013-02-11 03:00:00,49.3,16.7,29.94,ENE,63,0.0,0.0,27,0.00,,CLR,0.00,VWS V14.01,2013-02-11 11:00:00,
2013-02-11 03:05:00,49.3,16.7,29.94,ENE,63,0.0,0.0,27,0.00,,CLR,0.00,VWS V14.01,2013-02-11 11:05:00,
2013-02-11 03:10:00,48.7,16.3,29.94,ENE,63,0.0,0.0,27,0.00,,CLR,0.00,VWS V14.01,2013-02-11 11:10:00,
2013-02-11 03:15:00,48.7,16.3,29.94,ENE,63,0.0,0.0,27,0.00,,CLR,0.00,VWS V14.01,2013-02-11 11:15:00,
2013-02-11 03:20:00,48.7,16.3,29.94,ENE,63,0.0,0.0,27,0.00,,CLR,0.00,VWS V14.01,2013-02-11 11:20:00,
2013-02-11 03:25:00,48.7,16.3,29.94,ENE,63,0.0,0.0,27,0.00,,CLR,0.00,VWS V14.01,2013-02-11 11:25:00,
2013-02-11 03:30:00,48.7,16.3,29.94,ENE,63,0.0,0.0,27,0.00,,CLR,0.00,VWS V14.01,2013-02-11 11:30:00,
2013-02-11 03:35:00,48.6,16.1,29.94,ENE,63,0.0,0.0,27,0.00,,CLR,0.00,VWS V14.01,2013-02-11 11:35:00,
2013-02-11 03:40:00,48.6,16.1,29.94,ENE,63,0.0,0.0,27,0.00,,CLR,0.00,VWS V14.01,2013-02-11 11:40:00,
2013-02-11 03:45:00,48.7,16.3,29.94,ENE,63,0.0,0.0,27,0.00,,CLR,0.00,VWS V14.01,2013-02-11 11:45:00,
2013-02-11 03:50:00,48.7,16.3,29.94,ENE,68,0.0,0.0,27,0.00,,CLR,0.00,VWS V14.01,2013-02-11 11:50:00,
2013-02-11 03:55:00,49.3,16.7,29.94,ENE,68,0.0,0.0,27,0.00,,CLR,0.00,VWS V14.01,2013-02-11 11:55:00,
2013-02-11 04:00:00,49.5,16.9,29.94,ENE,67,0.0,0.0,27,0.00,,CLR,0.00,VWS V14.01,2013-02-11 12:00:00,
2013-02-11 04:05:00,49.5,16.9,29.94,ENE,67,0.0,0.0,27,0.00,,CLR,0.00,VWS V14.01,2013-02-11 12:05:00,
2013-02-11 04:10:00,49.5,16.9,29.94,ENE,61,0.0,0.0,27,0.00,,CLR,0.00,VWS V14.01,2013-02-11 12:10:00,
2013-02-11 04:14:00,49.5,16.9,29.94,ENE,61,0.0,0.0,27,0.00,,CLR,0.00,VWS V14.01,2013-02-11 12:14:00,
2013-02-11 04:19:00,49.1,16.6,29.94,ENE,61,0.0,0.0,27,0.00,,CLR,0.00,VWS V14.01,2013-02-11 12:19:00,
2013-02-11 04:24:00,49.1,16.6,29.94,ENE,62,0.0,0.0,27,0.00,,CLR,0.00,VWS V14.01,2013-02-11 12:24:00,
2013-02-11 04:29:00,48.9,16.4,29.94,ENE,62,0.0,0.0,27,0.00,,CLR,0.00,VWS V14.01,2013-02-11 12:29:00,
2013-02-11 04:34:00,48.9,16.4,29.94,ENE,58,0.0,0.0,27,0.00,,CLR,0.00,VWS V14.01,2013-02-11 12:34:00,
2013-02-11 04:39:00,49.3,16.7,29.94,NE,40,0.0,0.0,27,0.00,,CLR,0.00,VWS V14.01,2013-02-11 12:39:00,
2013-02-11 04:44:00,49.5,16.9,29.94,ENE,61,0.0,0.0,27,0.00,,CLR,0.00,VWS V14.01,2013-02-11 12:44:00,
2013-02-11 04:49:00,49.5,16.9,29.94,ENE,61,0.0,0.0,27,0.00,,CLR,0.00,VWS V14.01,2013-02-11 12:49:00,
2013-02-11 04:54:00,49.5,16.9,29.94,ENE,61,0.0,0.0,27,0.00,,CLR,0.00,VWS V14.01,2013-02-11 12:54:00,
2013-02-11 04:59:00,49.6,17.0,29.94,ENE,65,0.0,0.0,27,0.00,,CLR,0.00,VWS V14.01,2013-02-11 12:59:00,
2013-02-11 05:04:00,49.6,17.0,29.94,ENE,65,0.0,0.0,27,0.00,,CLR,0.00,VWS V14.01,2013-02-11 13:04:00,
2013-02-11 05:09:00,49.8,17.2,29.94,NE,47,0.0,0.0,27,0.00,,CLR,0.00,VWS V14.01,2013-02-11 13:09:00,
2013-02-11 05:14:00,49.8,17.2,29.94,NNW,338,0.0,0.0,27,0.00,,CLR,0.00,VWS V14.01,2013-02-11 13:14:00,
2013-02-11 05:19:00,49.8,17.2,29.94,NW,305,0.0,0.0,27,0.00,,CLR,0.00,VWS V14.01,2013-02-11 13:19:00,
2013-02-11 05:25:00,50.4,17.7,29.94,NE,46,0.0,0.0,27,0.00,,CLR,0.00,VWS V14.01,2013-02-11 13:25:00,
2013-02-11 05:30:00,50.4,17.7,29.94,ENE,64,0.0,0.0,27,0.00,,CLR,0.00,VWS V14.01,2013-02-11 13:30:00,
2013-02-11 05:35:00,51.3,17.6,29.94,North,357,0.0,0.0,26,0.00,,CLR,0.00,VWS V14.01,2013-02-11 13:35:00,
2013-02-11 05:40:00,51.3,17.6,29.94,North,357,0.0,0.0,26,0.00,,CLR,0.00,VWS V14.01,2013-02-11 13:40:00,
2013-02-11 05:45:00,51.8,18.0,29.94,SW,214,0.0,0.0,26,0.00,,CLR,0.00,VWS V14.01,2013-02-11 13:45:00,
2013-02-11 05:50:00,51.8,18.0,29.94,NNE,33,0.0,0.0,26,0.00,,CLR,0.00,VWS V14.01,2013-02-11 13:50:00,
2013-02-11 05:55:00,51.6,17.9,29.94,NNE,25,0.0,0.0,26,0.00,,CLR,0.00,VWS V14.01,2013-02-11 13:55:00,
2013-02-11 06:00:00,51.1,17.4,29.94,ENE,66,0.0,0.0,26,0.00,,CLR,0.00,VWS V14.01,2013-02-11 14:00:00,
2013-02-11 06:05:00,50.7,17.1,29.94,ENE,63,0.0,0.0,26,0.00,,CLR,0.00,VWS V14.01,2013-02-11 14:05:00,
2013-02-11 06:10:00,50.7,17.1,29.94,NNE,20,0.0,0.0,26,0.00,,CLR,0.00,VWS V14.01,2013-02-11 14:10:00,
2013-02-11 06:15:00,50.0,16.5,29.97,NNE,23,0.0,0.0,26,0.00,,CLR,0.00,VWS V14.01,2013-02-11 14:15:00,
2013-02-11 06:20:00,49.8,17.2,29.97,WNW,290,0.0,0.0,27,0.00,,CLR,0.00,VWS V14.01,2013-02-11 14:20:00,
2013-02-11 06:25:00,49.8,17.2,29.97,NE,44,0.0,0.0,27,0.00,,CLR,0.00,VWS V14.01,2013-02-11 14:25:00,
2013-02-11 06:30:00,49.5,16.9,29.97,NE,45,0.0,0.0,27,0.00,,CLR,0.00,VWS V14.01,2013-02-11 14:30:00,
2013-02-11 06:35:00,49.5,16.9,29.97,NE,44,0.0,0.0,27,0.00,,CLR,0.00,VWS V14.01,2013-02-11 14:35:00,
2013-02-11 06:39:00,48.7,16.3,29.97,NE,44,0.0,0.0,27,0.00,,CLR,0.00,VWS V14.01,2013-02-11 14:39:00,
2013-02-11 06:44:00,48.6,16.1,29.97,WSW,243,0.0,0.0,27,0.00,,CLR,0.00,VWS V14.01,2013-02-11 14:44:00,
2013-02-11 06:49:00,48.6,16.1,29.97,WSW,243,0.0,0.0,27,0.00,,CLR,0.00,VWS V14.01,2013-02-11 14:49:00,
2013-02-11 06:54:00,48.6,16.1,29.97,WSW,243,0.0,0.0,27,0.00,,CLR,0.00,VWS V14.01,2013-02-11 14:54:00,
2013-02-11 06:59:00,48.4,16.0,29.97,WSW,242,0.0,0.0,27,0.00,,CLR,0.00,VWS V14.01,2013-02-11 14:59:00,
2013-02-11 07:04:00,48.4,16.0,29.97,WSW,243,0.0,0.0,27,0.00,,FEW180,0.00,VWS V14.01,2013-02-11 15:04:00,
2013-02-11 07:09:00,48.4,16.0,29.97,SSE,154,0.0,0.0,27,0.00,,FEW180,0.00,VWS V14.01,2013-02-11 15:09:00,
2013-02-11 07:14:00,48.4,16.0,29.97,ENE,66,0.0,0.0,27,0.00,,FEW180,0.00,VWS V14.01,2013-02-11 15:14:00,
2013-02-11 07:19:00,48.4,16.0,29.97,ENE,65,0.0,0.0,27,0.00,,FEW180,0.00,VWS V14.01,2013-02-11 15:19:00,
2013-02-11 07:24:00,48.4,16.0,29.97,ENE,65,0.0,0.0,27,0.00,,FEW180,0.00,VWS V14.01,2013-02-11 15:24:00,
2013-02-11 07:29:00,48.6,16.1,29.97,North,5,0.0,0.0,27,0.00,,FEW180,0.00,VWS V14.01,2013-02-11 15:29:00,
2013-02-11 07:34:00,48.6,16.1,29.97,North,357,0.0,0.0,27,0.00,,FEW180,0.00,VWS V14.01,2013-02-11 15:34:00,
2013-02-11 07:39:00,48.6,16.1,29.97,WSW,251,0.0,0.0,27,0.00,,FEW180,0.00,VWS V14.01,2013-02-11 15:39:00,
2013-02-11 07:44:00,48.6,16.1,29.97,WSW,252,0.0,0.0,27,0.00,,FEW180,0.00,VWS V14.01,2013-02-11 15:44:00,
2013-02-11 07:49:00,48.7,16.3,29.97,WSW,251,0.0,0.0,27,0.00,,FEW180,0.00,VWS V14.01,2013-02-11 15:49:00,
2013-02-11 07:54:00,49.1,16.6,30.00,WSW,251,0.0,0.0,27,0.00,,FEW180,0.00,VWS V14.01,2013-02-11 15:54:00,
2013-02-11 07:59:00,49.1,16.6,30.00,WSW,251,0.0,0.0,27,0.00,,FEW180,0.00,VWS V14.01,2013-02-11 15:59:00,
2013-02-11 08:04:00,49.3,16.7,30.00,WSW,251,0.0,0.0,27,0.00,,FEW180,0.00,VWS V14.01,2013-02-11 16:04:00,
2013-02-11 08:09:00,49.3,16.7,30.00,North,11,0.0,0.0,27,0.00,,FEW180,0.00,VWS V14.01,2013-02-11 16:09:00,
2013-02-11 08:14:00,49.3,16.7,30.00,NNE,15,0.0,0.0,27,0.00,,FEW180,0.00,VWS V14.01,2013-02-11 16:14:00,
2013-02-11 08:19:00,49.5,16.9,30.00,ENE,74,0.0,0.0,27,0.00,,FEW180,0.00,VWS V14.01,2013-02-11 16:19:00,
2013-02-11 08:24:00,49.8,17.2,30.00,ENE,74,0.0,0.0,27,0.00,,FEW180,0.00,VWS V14.01,2013-02-11 16:24:00,
2013-02-11 08:29:00,49.8,17.2,30.00,West,278,0.0,0.0,27,0.00,,FEW180,0.00,VWS V14.01,2013-02-11 16:29:00,
2013-02-11 08:34:00,50.2,17.5,30.00,NE,47,0.0,0.0,27,0.00,,FEW180,0.00,VWS V14.01,2013-02-11 16:34:00,
2013-02-11 08:39:00,50.5,17.8,30.00,ENE,77,0.0,0.0,27,0.00,,FEW180,0.00,VWS V14.01,2013-02-11 16:39:00,
2013-02-11 08:44:00,50.7,18.0,30.00,West,275,0.0,0.0,27,0.00,,FEW180,0.00,VWS V14.01,2013-02-11 16:44:00,
2013-02-11 08:49:00,51.4,18.6,30.03,ENE,69,0.0,0.0,27,0.00,,FEW180,0.00,VWS V14.01,2013-02-11 16:49:00,
2013-02-11 08:54:00,51.8,18.0,30.03,SW,223,0.0,0.0,26,0.00,,FEW180,0.00,VWS V14.01,2013-02-11 16:54:00,
2013-02-11 08:59:00,52.2,18.3,30.03,NNW,338,0.0,0.0,26,0.00,,FEW180,0.00,VWS V14.01,2013-02-11 16:59:00,
2013-02-11 09:04:00,52.7,18.8,30.03,NNW,331,0.0,0.0,26,0.00,,FEW180,0.00,VWS V14.01,2013-02-11 17:04:00,
2013-02-11 09:09:00,52.7,18.8,30.03,NNW,331,0.0,0.0,26,0.00,,FEW180,0.00,VWS V14.01,2013-02-11 17:09:00,
2013-02-11 09:14:00,53.4,19.4,30.03,WSW,248,0.0,0.0,26,0.00,,FEW180,0.00,VWS V14.01,2013-02-11 17:14:00,
2013-02-11 09:19:00,53.6,19.6,30.03,NW,319,0.0,0.0,26,0.00,,FEW180,0.00,VWS V14.01,2013-02-11 17:19:00,
2013-02-11 09:24:00,54.0,19.9,30.03,NW,319,0.0,0.0,26,0.00,,FEW180,0.00,VWS V14.01,2013-02-11 17:24:00,
2013-02-11 09:29:00,54.3,20.2,30.03,ENE,59,0.0,0.0,26,0.00,,FEW180,0.00,VWS V14.01,2013-02-11 17:29:00,
2013-02-11 09:34:00,54.3,20.2,30.03,NE,47,0.0,0.0,26,0.00,,FEW180,0.00,VWS V14.01,2013-02-11 17:34:00,
2013-02-11 09:39:00,54.9,20.6,30.03,SSE,163,0.0,0.0,26,0.00,,FEW180,0.00,VWS V14.01,2013-02-11 17:39:00,
2013-02-11 09:44:00,55.2,21.0,30.03,SSE,163,0.0,0.0,26,0.00,,FEW180,0.00,VWS V14.01,2013-02-11 17:44:00,
2013-02-11 09:49:00,55.6,20.3,30.03,West,280,0.0,0.0,25,0.00,,FEW180,0.00,VWS V14.01,2013-02-11 17:49:00,
2013-02-11 09:54:00,55.6,20.3,30.03,NNW,333,0.0,0.0,25,0.00,,FEW180,0.00,VWS V14.01,2013-02-11 17:54:00,
2013-02-11 09:59:00,55.6,20.3,30.03,NNW,334,0.0,0.0,25,0.00,,FEW180,0.00,VWS V14.01,2013-02-11 17:59:00,
2013-02-11 10:04:00,55.6,20.3,30.03,WNW,300,0.0,0.0,25,0.00,,FEW180,0.00,VWS V14.01,2013-02-11 18:04:00,
2013-02-11 10:09:00,56.5,21.1,30.03,NW,310,0.0,0.0,25,0.00,,FEW180,0.00,VWS V14.01,2013-02-11 18:09:00,
2013-02-11 10:14:00,57.4,21.9,30.03,NW,310,0.0,0.0,25,0.00,,FEW180,0.00,VWS V14.01,2013-02-11 18:14:00,
2013-02-11 10:19:00,57.7,22.2,30.03,NNW,342,0.0,0.0,25,0.00,,FEW180,0.00,VWS V14.01,2013-02-11 18:19:00,
2013-02-11 10:24:00,58.3,22.6,30.03,NE,54,0.0,0.0,25,0.00,,FEW180,0.00,VWS V14.01,2013-02-11 18:24:00,
2013-02-11 10:29:00,58.5,22.8,30.03,East,91,0.0,0.0,25,0.00,,FEW180,0.00,VWS V14.01,2013-02-11 18:29:00,
2013-02-11 10:34:00,58.8,23.1,30.03,NE,45,0.0,0.0,25,0.00,,FEW180,0.00,VWS V14.01,2013-02-11 18:34:00,
2013-02-11 10:39:00,59.2,23.4,30.03,WNW,302,0.0,0.0,25,0.00,,FEW180,0.00,VWS V14.01,2013-02-11 18:39:00,
2013-02-11 10:44:00,59.7,23.9,30.03,WNW,302,0.0,0.0,25,0.00,,FEW180,0.00,VWS V14.01,2013-02-11 18:44:00,
2013-02-11 10:49:00,60.6,24.6,30.03,NW,309,2.7,2.7,25,0.00,,FEW180,0.00,VWS V14.01,2013-02-11 18:49:00,
2013-02-11 10:54:00,60.6,24.6,30.03,NW,309,2.7,2.7,25,0.00,,FEW180,0.00,VWS V14.01,2013-02-11 18:54:00,
2013-02-11 10:59:00,60.6,24.6,30.03,NW,309,2.7,2.7,25,0.00,,FEW180,0.00,VWS V14.01,2013-02-11 18:59:00,
2013-02-11 11:04:00,62.1,24.9,30.03,SW,222,0.0,0.0,24,0.00,,FEW180,0.00,VWS V14.01,2013-02-11 19:04:00,
2013-02-11 11:09:00,63.0,25.6,30.03,South,170,0.0,0.0,24,0.00,,FEW180,0.00,VWS V14.01,2013-02-11 19:09:00,
2013-02-11 11:14:00,63.0,25.6,30.03,SW,234,0.0,0.0,24,0.00,,FEW180,0.00,VWS V14.01,2013-02-11 19:14:00,
2013-02-11 11:19:00,64.0,26.5,30.03,SW,234,0.0,0.0,24,0.00,,FEW180,0.00,VWS V14.01,2013-02-11 19:19:00,
2013-02-11 11:24:00,65.1,26.4,30.03,West,261,0.0,0.0,23,0.00,,FEW180,0.00,VWS V14.01,2013-02-11 19:24:00,
2013-02-11 11:29:00,65.3,26.6,30.03,NW,315,0.0,0.0,23,0.00,,FEW180,0.00,VWS V14.01,2013-02-11 19:29:00,
2013-02-11 11:34:00,65.3,26.6,30.03,NE,47,0.0,0.0,23,0.00,,FEW180,0.00,VWS V14.01,2013-02-11 19:34:00,
2013-02-11 11:39:00,66.4,27.5,30.03,West,278,0.0,0.0,23,0.00,,FEW180,0.00,VWS V14.01,2013-02-11 19:39:00,
2013-02-11 11:44:00,66.6,27.6,30.03,SW,224,0.0,4.0,23,0.00,,FEW180,0.00,VWS V14.01,2013-02-11 19:44:00,
2013-02-11 11:49:00,66.7,27.8,30.03,West,279,3.1,3.1,23,0.00,,FEW180,0.00,VWS V14.01,2013-02-11 19:49:00,
2013-02-11 11:54:00,66.7,27.8,30.03,NE,55,0.0,0.0,23,0.00,,FEW180,0.00,VWS V14.01,2013-02-11 19:54:00,
2013-02-11 11:59:00,66.2,27.3,30.03,SSW,196,0.0,0.0,23,0.00,,FEW180,0.00,VWS V14.01,2013-02-11 19:59:00,
2013-02-11 12:04:00,66.6,27.6,30.03,South,170,0.0,0.0,23,0.00,,CLR,0.00,VWS V14.01,2013-02-11 20:04:00,
2013-02-11 12:09:00,67.5,28.4,30.03,WNW,284,0.0,0.0,23,0.00,,CLR,0.00,VWS V14.01,2013-02-11 20:09:00,
2013-02-11 12:14:00,67.6,28.5,30.03,West,262,0.0,0.0,23,0.00,,CLR,0.00,VWS V14.01,2013-02-11 20:14:00,
2013-02-11 12:19:00,68.2,29.0,30.03,West,262,0.0,0.0,23,0.00,,CLR,0.00,VWS V14.01,2013-02-11 20:19:00,
2013-02-11 12:24:00,68.2,29.0,30.03,South,170,0.0,0.0,23,0.00,,CLR,0.00,VWS V14.01,2013-02-11 20:24:00,
2013-02-11 12:29:00,68.7,29.5,30.00,NE,54,0.0,0.0,23,0.00,,CLR,0.00,VWS V14.01,2013-02-11 20:29:00,
2013-02-11 12:34:00,68.7,29.5,30.00,NW,307,4.0,4.0,23,0.00,,CLR,0.00,VWS V14.01,2013-02-11 20:34:00,
2013-02-11 12:39:00,68.5,29.3,30.00,NW,308,0.0,0.0,23,0.00,,CLR,0.00,VWS V14.01,2013-02-11 20:39:00,
2013-02-11 12:44:00,68.5,29.3,30.00,WNW,300,0.0,0.0,23,0.00,,CLR,0.00,VWS V14.01,2013-02-11 20:44:00,
2013-02-11 12:49:00,68.9,29.6,30.00,NW,319,5.1,5.1,23,0.00,,CLR,0.00,VWS V14.01,2013-02-11 20:49:00,
2013-02-11 12:54:00,69.1,29.8,30.00,SSW,208,0.0,0.0,23,0.00,,CLR,0.00,VWS V14.01,2013-02-11 20:54:00,
2013-02-11 12:59:00,69.1,29.8,30.00,SW,216,0.0,0.0,23,0.00,,CLR,0.00,VWS V14.01,2013-02-11 20:59:00,
2013-02-11 13:04:00,68.9,29.6,30.00,WSW,238,0.0,0.0,23,0.00,,CLR,0.00,VWS V14.01,2013-02-11 21:04:00,
2013-02-11 13:09:00,68.9,29.6,30.00,SSE,164,0.0,0.0,23,0.00,,CLR,0.00,VWS V14.01,2013-02-11 21:09:00,
2013-02-11 13:14:00,69.4,30.1,30.00,NE,52,0.0,0.0,23,0.00,,CLR,0.00,VWS V14.01,2013-02-11 21:14:00,
2013-02-11 13:19:00,69.6,30.2,30.00,South,189,0.0,0.0,23,0.00,,CLR,0.00,VWS V14.01,2013-02-11 21:19:00,
2013-02-11 13:24:00,70.2,29.6,30.00,WSW,258,0.0,0.0,22,0.00,,CLR,0.00,VWS V14.01,2013-02-11 21:24:00,
2013-02-11 13:29:00,70.3,29.7,30.00,ENE,72,0.0,0.0,22,0.00,,CLR,0.00,VWS V14.01,2013-02-11 21:29:00,
2013-02-11 13:34:00,70.2,29.6,29.97,SSE,160,0.0,0.0,22,0.00,,CLR,0.00,VWS V14.01,2013-02-11 21:34:00,
2013-02-11 13:39:00,68.5,29.3,29.97,South,169,0.0,0.0,23,0.00,,CLR,0.00,VWS V14.01,2013-02-11 21:39:00,
2013-02-11 13:44:00,68.5,29.3,29.97,WNW,295,2.7,2.7,23,0.00,,CLR,0.00,VWS V14.01,2013-02-11 21:44:00,
2013-02-11 13:49:00,66.6,27.6,29.97,WNW,295,2.7,2.7,23,0.00,,CLR,0.00,VWS V14.01,2013-02-11 21:49:00,
2013-02-11 13:54:00,66.6,27.6,29.97,WNW,294,0.0,0.0,23,0.00,,CLR,0.00,VWS V14.01,2013-02-11 21:54:00,
2013-02-11 13:59:00,66.7,27.8,29.97,WNW,294,0.0,0.0,23,0.00,,CLR,0.00,VWS V14.01,2013-02-11 21:59:00,
2013-02-11 14:04:00,66.6,27.6,29.97,West,259,0.0,0.0,23,0.00,,CLR,0.00,VWS V14.01,2013-02-11 22:04:00,
2013-02-11 14:09:00,66.9,27.9,29.97,NW,307,2.7,2.7,23,0.00,,CLR,0.00,VWS V14.01,2013-02-11 22:09:00,
2013-02-11 14:14:00,67.1,28.1,29.97,NW,312,2.7,2.7,23,0.00,,CLR,0.00,VWS V14.01,2013-02-11 22:14:00,
2013-02-11 14:19:00,68.0,28.9,29.97,NW,305,0.0,0.0,23,0.00,,CLR,0.00,VWS V14.01,2013-02-11 22:19:00,
2013-02-11 14:24:00,68.7,29.5,29.97,WSW,249,2.7,2.7,23,0.00,,CLR,0.00,VWS V14.01,2013-02-11 22:24:00,
2013-02-11 14:29:00,68.7,29.5,29.97,WSW,249,2.7,2.7,23,0.00,,CLR,0.00,VWS V14.01,2013-02-11 22:29:00,
2013-02-11 14:34:00,68.5,29.3,29.97,NW,318,3.1,3.1,23,0.00,,CLR,0.00,VWS V14.01,2013-02-11 22:34:00,
2013-02-11 14:39:00,68.5,29.3,29.97,NW,318,3.1,3.1,23,0.00,,CLR,0.00,VWS V14.01,2013-02-11 22:39:00,
2013-02-11 14:44:00,68.2,29.0,29.97,NW,318,4.5,4.5,23,0.00,,CLR,0.00,VWS V14.01,2013-02-11 22:44:00,
2013-02-11 14:49:00,68.0,28.9,29.97,WNW,301,0.0,0.0,23,0.00,,CLR,0.00,VWS V14.01,2013-02-11 22:49:00,
2013-02-11 14:54:00,68.0,28.9,29.97,WNW,301,0.0,0.0,23,0.00,,CLR,0.00,VWS V14.01,2013-02-11 22:54:00,
2013-02-11 14:59:00,68.4,29.1,29.97,North,350,2.7,2.7,23,0.00,,CLR,0.00,VWS V14.01,2013-02-11 22:59:00,
2013-02-11 15:04:00,68.4,29.1,29.97,WNW,294,0.0,0.0,23,0.00,,CLR,0.00,VWS V14.01,2013-02-11 23:04:00,
2013-02-11 15:09:00,68.4,29.1,29.97,SSW,200,0.0,0.0,23,0.00,,CLR,0.00,VWS V14.01,2013-02-11 23:09:00,
2013-02-11 15:14:00,66.7,27.8,29.97,SSW,212,0.0,0.0,23,0.00,,CLR,0.00,VWS V14.01,2013-02-11 23:14:00,
2013-02-11 15:19:00,66.4,27.5,29.97,WNW,301,2.7,2.7,23,0.00,,CLR,0.00,VWS V14.01,2013-02-11 23:19:00,
2013-02-11 15:24:00,66.9,27.9,29.97,NE,50,0.0,2.7,23,0.00,,CLR,0.00,VWS V14.01,2013-02-11 23:24:00,
2013-02-11 15:29:00,66.9,27.9,29.97,NNW,343,4.7,4.7,23,0.00,,CLR,0.00,VWS V14.01,2013-02-11 23:29:00,
2013-02-11 15:34:00,66.7,27.8,29.97,WNW,286,2.7,2.7,23,0.00,,CLR,0.00,VWS V14.01,2013-02-11 23:34:00,
2013-02-11 15:39:00,66.4,27.5,29.97,NW,306,0.0,0.0,23,0.00,,CLR,0.00,VWS V14.01,2013-02-11 23:39:00,
2013-02-11 15:44:00,66.2,27.3,29.97,NW,306,0.0,0.0,23,0.00,,CLR,0.00,VWS V14.01,2013-02-11 23:44:00,
2013-02-11 15:49:00,65.7,26.9,29.97,WNW,303,3.1,3.1,23,0.00,,CLR,0.00,VWS V14.01,2013-02-11 23:49:00,
2013-02-11 15:54:00,65.7,26.9,29.97,WNW,303,2.7,2.7,23,0.00,,CLR,0.00,VWS V14.01,2013-02-11 23:54:00,
2013-02-11 15:59:00,64.0,26.5,29.97,WNW,303,2.7,2.7,24,0.00,,CLR,0.00,VWS V14.01,2013-02-11 23:59:00,
2013-02-11 16:04:00,64.0,26.5,29.97,NW,326,3.6,3.6,24,0.00,,CLR,0.00,VWS V14.01,2013-02-12 00:04:00,
2013-02-11 16:09:00,63.7,26.2,29.97,NW,317,0.0,3.1,24,0.00,,CLR,0.00,VWS V14.01,2013-02-12 00:09:00,
2013-02-11 16:14:00,63.7,26.2,29.97,NW,306,2.7,2.7,24,0.00,,CLR,0.00,VWS V14.01,2013-02-12 00:14:00,
2013-02-11 16:19:00,63.1,25.8,29.97,NNW,342,2.7,2.7,24,0.00,,CLR,0.00,VWS V14.01,2013-02-12 00:19:00,
2013-02-11 16:24:00,63.1,25.8,29.97,WNW,291,0.0,0.0,24,0.00,,CLR,0.00,VWS V14.01,2013-02-12 00:24:00,
2013-02-11 16:29:00,63.0,25.6,29.97,WNW,298,0.0,0.0,24,0.00,,CLR,0.00,VWS V14.01,2013-02-12 00:29:00,
2013-02-11 16:34:00,62.2,25.0,29.97,NW,324,0.0,0.0,24,0.00,,CLR,0.00,VWS V14.01,2013-02-12 00:34:00,
2013-02-11 16:39:00,61.7,24.6,29.97,West,268,3.1,3.1,24,0.00,,CLR,0.00,VWS V14.01,2013-02-12 00:39:00,
2013-02-11 16:44:00,61.0,24.0,29.97,NW,308,0.0,0.0,24,0.00,,CLR,0.00,VWS V14.01,2013-02-12 00:44:00,
2013-02-11 16:49:00,61.0,24.0,29.97,NNW,340,4.7,4.7,24,0.00,,CLR,0.00,VWS V14.01,2013-02-12 00:49:00,
2013-02-11 16:54:00,60.3,24.3,29.97,WNW,303,0.0,0.0,25,0.00,,CLR,0.00,VWS V14.01,2013-02-12 00:54:00,
2013-02-11 16:59:00,60.1,24.2,29.97,WNW,300,0.0,0.0,25,0.00,,CLR,0.00,VWS V14.01,2013-02-12 00:59:00,
2013-02-11 17:04:00,60.1,24.2,30.00,WNW,288,0.0,0.0,25,0.00,,FEW017,0.00,VWS V14.01,2013-02-12 01:04:00,
2013-02-11 17:09:00,59.5,23.7,30.00,WNW,288,0.0,0.0,25,0.00,,FEW017,0.00,VWS V14.01,2013-02-12 01:09:00,
2013-02-11 17:14:00,59.2,23.4,30.00,NW,312,0.0,0.0,25,0.00,,FEW017,0.00,VWS V14.01,2013-02-12 01:14:00,
2013-02-11 17:19:00,59.0,23.2,30.00,West,272,0.0,0.0,25,0.00,,FEW017,0.00,VWS V14.01,2013-02-12 01:19:00,
2013-02-11 17:24:00,59.0,23.2,30.00,WNW,302,0.0,0.0,25,0.00,,FEW017,0.00,VWS V14.01,2013-02-12 01:24:00,
2013-02-11 17:29:00,59.0,23.2,30.00,WNW,284,0.0,0.0,25,0.00,,FEW017,0.00,VWS V14.01,2013-02-12 01:29:00,
2013-02-11 17:34:00,57.9,22.3,30.00,WNW,284,0.0,0.0,25,0.00,,FEW017,0.00,VWS V14.01,2013-02-12 01:34:00,
2013-02-11 17:39:00,57.9,22.3,30.00,NNW,327,0.0,0.0,25,0.00,,FEW017,0.00,VWS V14.01,2013-02-12 01:39:00,
2013-02-11 17:44:00,56.7,22.2,30.00,NW,310,0.0,0.0,26,0.00,,FEW017,0.00,VWS V14.01,2013-02-12 01:44:00,
2013-02-11 17:49:00,56.7,22.2,30.00,NW,320,0.0,0.0,26,0.00,,FEW017,0.00,VWS V14.01,2013-02-12 01:49:00,
2013-02-11 17:54:00,55.8,21.4,30.00,NW,311,0.0,0.0,26,0.00,,FEW017,0.00,VWS V14.01,2013-02-12 01:54:00,
2013-02-11 17:59:00,55.2,21.0,30.00,WNW,302,0.0,0.0,26,0.00,,FEW017,0.00,VWS V14.01,2013-02-12 01:59:00,
2013-02-11 18:04:00,55.2,21.0,30.00,WNW,303,0.0,0.0,26,0.00,,FEW010,0.00,VWS V14.01,2013-02-12 02:04:00,
2013-02-11 18:09:00,54.5,21.2,30.00,NW,318,0.0,0.0,27,0.00,,FEW010,0.00,VWS V14.01,2013-02-12 02:09:00,
2013-02-11 18:14:00,54.5,21.2,30.00,NW,318,0.0,0.0,27,0.00,,FEW010,0.00,VWS V14.01,2013-02-12 02:14:00,
2013-02-11 18:19:00,54.3,21.1,30.00,NW,312,0.0,0.0,27,0.00,,FEW010,0.00,VWS V14.01,2013-02-12 02:19:00,
2013-02-11 18:24:00,54.1,20.9,30.00,NW,322,0.0,0.0,27,0.00,,FEW010,0.00,VWS V14.01,2013-02-12 02:24:00,
2013-02-11 18:29:00,53.8,20.6,30.00,NW,322,0.0,0.0,27,0.00,,FEW010,0.00,VWS V14.01,2013-02-12 02:29:00,
2013-02-11 18:34:00,53.6,20.5,30.00,NW,324,0.0,0.0,27,0.00,,FEW010,0.00,VWS V14.01,2013-02-12 02:34:00,
2013-02-11 18:39:00,53.6,20.5,30.00,NW,324,0.0,0.0,27,0.00,,FEW010,0.00,VWS V14.01,2013-02-12 02:39:00,
2013-02-11 18:44:00,53.4,21.1,30.00,NW,320,0.0,0.0,28,0.00,,FEW010,0.00,VWS V14.01,2013-02-12 02:44:00,
2013-02-11 18:49:00,53.4,21.1,30.00,NW,309,0.0,0.0,28,0.00,,FEW010,0.00,VWS V14.01,2013-02-12 02:49:00,
2013-02-11 18:54:00,53.1,20.8,30.03,NW,310,0.0,0.0,28,0.00,,FEW010,0.00,VWS V14.01,2013-02-12 02:54:00,
2013-02-11 18:59:00,53.1,20.8,30.03,NW,310,0.0,0.0,28,0.00,,FEW010,0.00,VWS V14.01,2013-02-12 02:59:00,
2013-02-11 19:04:00,52.9,20.7,30.03,NW,310,0.0,0.0,28,0.00,,FEW011,0.00,VWS V14.01,2013-02-12 03:04:00,
2013-02-11 19:09:00,52.9,20.7,30.03,NW,310,0.0,0.0,28,0.00,,FEW011,0.00,VWS V14.01,2013-02-12 03:09:00,
2013-02-11 19:14:00,52.9,20.7,30.03,NW,310,0.0,0.0,28,0.00,,FEW011,0.00,VWS V14.01,2013-02-12 03:14:00,
2013-02-11 19:19:00,52.9,20.7,30.03,NW,310,0.0,0.0,28,0.00,,FEW011,0.00,VWS V14.01,2013-02-12 03:19:00,
2013-02-11 19:24:00,52.9,20.7,30.03,NW,310,0.0,0.0,28,0.00,,FEW011,0.00,VWS V14.01,2013-02-12 03:24:00,
2013-02-11 19:29:00,52.9,20.7,30.03,NW,310,0.0,0.0,28,0.00,,FEW011,0.00,VWS V14.01,2013-02-12 03:29:00,
2013-02-11 19:34:00,52.9,20.7,30.03,NW,310,0.0,0.0,28,0.00,,FEW011,0.00,VWS V14.01,2013-02-12 03:34:00,
2013-02-11 19:39:00,52.3,20.2,30.03,NW,310,0.0,0.0,28,0.00,,FEW011,0.00,VWS V14.01,2013-02-12 03:39:00,
2013-02-11 19:44:00,52.3,20.2,30.03,NW,310,0.0,0.0,28,0.00,,FEW011,0.00,VWS V14.01,2013-02-12 03:44:00,
2013-02-11 19:49:00,52.3,20.2,30.03,NW,310,0.0,0.0,28,0.00,,FEW011,0.00,VWS V14.01,2013-02-12 03:49:00,
2013-02-11 19:54:00,52.3,20.2,30.03,NW,310,0.0,0.0,28,0.00,,FEW011,0.00,VWS V14.01,2013-02-12 03:54:00,
2013-02-11 19:59:00,52.3,20.2,30.03,NW,310,0.0,0.0,28,0.00,,FEW011,0.00,VWS V14.01,2013-02-12 03:59:00,
2013-02-11 20:04:00,50.7,20.4,30.03,NW,310,0.0,0.0,30,0.00,,FEW010,0.00,VWS V14.01,2013-02-12 04:04:00,
2013-02-11 20:09:00,50.7,20.4,30.03,NW,309,0.0,0.0,30,0.00,,FEW010,0.00,VWS V14.01,2013-02-12 04:09:00,
2013-02-11 20:14:00,50.7,20.4,30.03,NW,309,0.0,0.0,30,0.00,,FEW010,0.00,VWS V14.01,2013-02-12 04:14:00,
2013-02-11 20:19:00,50.2,22.2,30.03,NW,318,0.0,0.0,33,0.00,,FEW010,0.00,VWS V14.01,2013-02-12 04:19:00,
2013-02-11 20:24:00,50.2,22.2,30.03,NW,318,0.0,0.0,33,0.00,,FEW010,0.00,VWS V14.01,2013-02-12 04:24:00,
2013-02-11 20:29:00,49.8,23.3,30.03,NW,318,0.0,0.0,35,0.00,,FEW010,0.00,VWS V14.01,2013-02-12 04:29:00,
2013-02-11 20:34:00,49.8,23.3,30.03,NW,318,0.0,0.0,35,0.00,,FEW010,0.00,VWS V14.01,2013-02-12 04:34:00,
2013-02-11 20:39:00,49.6,24.5,30.03,NW,318,0.0,0.0,37,0.00,,FEW010,0.00,VWS V14.01,2013-02-12 04:39:00,
2013-02-11 20:44:00,49.6,24.5,30.03,NW,317,0.0,0.0,37,0.00,,FEW010,0.00,VWS V14.01,2013-02-12 04:44:00,
2013-02-11 20:49:00,49.5,24.3,30.03,NW,317,0.0,0.0,37,0.00,,FEW010,0.00,VWS V14.01,2013-02-12 04:49:00,
2013-02-11 20:54:00,49.3,24.8,30.03,NW,317,0.0,0.0,38,0.00,,FEW010,0.00,VWS V14.01,2013-02-12 04:54:00,
2013-02-11 20:59:00,49.3,24.8,30.03,NW,317,0.0,0.0,38,0.00,,FEW010,0.00,VWS V14.01,2013-02-12 04:59:00,
2013-02-11 21:00:00,49.3,24.8,30.03,NW,317,0.0,0.0,38,0.00,,FEW010,0.00,VWS V14.01,2013-02-12 05:00:00,
2013-02-11 21:05:00,49.3,25.4,30.06,NW,317,0.0,0.0,39,0.00,,FEW010,0.00,VWS V14.01,2013-02-12 05:05:00,
2013-02-11 21:10:00,49.3,26.0,30.06,NNW,329,0.0,0.0,40,0.00,,FEW010,0.00,VWS V14.01,2013-02-12 05:10:00,
2013-02-11 21:15:00,49.3,26.6,30.06,NW,321,0.0,0.0,41,0.00,,FEW010,0.00,VWS V14.01,2013-02-12 05:15:00,
2013-02-11 21:20:00,49.3,26.6,30.06,NW,317,0.0,0.0,41,0.00,,FEW010,0.00,VWS V14.01,2013-02-12 05:20:00,
2013-02-11 21:25:00,49.5,26.8,30.06,NW,317,0.0,0.0,41,0.00,,FEW010,0.00,VWS V14.01,2013-02-12 05:25:00,
2013-02-11 21:30:00,49.5,26.8,30.06,NW,317,0.0,0.0,41,0.00,,FEW010,0.00,VWS V14.01,2013-02-12 05:30:00,
2013-02-11 21:35:00,49.3,27.2,30.06,NW,317,0.0,0.0,42,0.00,,FEW010,0.00,VWS V14.01,2013-02-12 05:35:00,
2013-02-11 21:40:00,49.1,27.0,30.06,NW,317,0.0,0.0,42,0.00,,FEW010,0.00,VWS V14.01,2013-02-12 05:40:00,
2013-02-11 21:45:00,49.1,27.0,30.06,NW,317,0.0,0.0,42,0.00,,FEW010,0.00,VWS V14.01,2013-02-12 05:45:00,
2013-02-11 21:50:00,49.1,27.0,30.06,NW,317,0.0,0.0,42,0.00,,FEW010,0.00,VWS V14.01,2013-02-12 05:50:00,
2013-02-11 21:55:00,49.1,27.0,30.06,NW,317,0.0,0.0,42,0.00,,FEW010,0.00,VWS V14.01,2013-02-12 05:55:00,
2013-02-11 22:00:00,48.7,26.7,30.06,NW,317,0.0,0.0,42,0.00,,FEW010,0.00,VWS V14.01,2013-02-12 06:00:00,
2013-02-11 22:05:00,48.7,26.7,30.06,NW,317,0.0,0.0,42,0.00,,FEW010,0.00,VWS V14.01,2013-02-12 06:05:00,
2013-02-11 22:10:00,48.7,27.3,30.06,NW,317,0.0,0.0,43,0.00,,FEW010,0.00,VWS V14.01,2013-02-12 06:10:00,
2013-02-11 22:15:00,48.7,27.3,30.06,NW,317,0.0,0.0,43,0.00,,FEW010,0.00,VWS V14.01,2013-02-12 06:15:00,
2013-02-11 22:20:00,48.7,27.3,30.06,NW,317,0.0,0.0,43,0.00,,FEW010,0.00,VWS V14.01,2013-02-12 06:20:00,
2013-02-11 22:25:00,48.7,27.3,30.06,NW,317,0.0,0.0,43,0.00,,FEW010,0.00,VWS V14.01,2013-02-12 06:25:00,
2013-02-11 22:30:00,48.7,27.3,30.06,NW,317,0.0,0.0,43,0.00,,FEW010,0.00,VWS V14.01,2013-02-12 06:30:00,
2013-02-11 22:35:00,48.7,27.3,30.06,NW,317,0.0,0.0,43,0.00,,FEW010,0.00,VWS V14.01,2013-02-12 06:35:00,
2013-02-11 22:40:00,48.7,27.3,30.06,NW,317,0.0,0.0,43,0.00,,FEW010,0.00,VWS V14.01,2013-02-12 06:40:00,
2013-02-11 22:45:00,48.4,27.5,30.06,NW,317,0.0,0.0,44,0.00,,FEW010,0.00,VWS V14.01,2013-02-12 06:45:00,
2013-02-11 22:50:00,48.4,27.5,30.06,NW,317,0.0,0.0,44,0.00,,FEW010,0.00,VWS V14.01,2013-02-12 06:50:00,
2013-02-11 22:55:00,48.4,27.5,30.06,NW,317,0.0,0.0,44,0.00,,FEW010,0.00,VWS V14.01,2013-02-12 06:55:00,
2013-02-11 23:00:00,48.4,27.5,30.06,NW,317,0.0,0.0,44,0.00,,FEW010,0.00,VWS V14.01,2013-02-12 07:00:00,
2013-02-11 23:05:00,48.4,27.5,30.06,NW,317,0.0,0.0,44,0.00,,FEW010,0.00,VWS V14.01,2013-02-12 07:05:00,
2013-02-11 23:10:00,48.4,27.5,30.06,NW,317,0.0,0.0,44,0.00,,FEW010,0.00,VWS V14.01,2013-02-12 07:10:00,
2013-02-11 23:15:00,48.0,27.7,30.06,NW,317,0.0,0.0,45,0.00,,FEW010,0.00,VWS V14.01,2013-02-12 07:15:00,
2013-02-11 23:20:00,48.0,28.2,30.06,NW,317,0.0,0.0,46,0.00,,FEW010,0.00,VWS V14.01,2013-02-12 07:20:00,
2013-02-11 23:25:00,48.0,28.2,30.06,NW,317,0.0,0.0,46,0.00,,FEW010,0.00,VWS V14.01,2013-02-12 07:25:00,
2013-02-11 23:30:00,48.0,28.2,30.06,NW,317,0.0,0.0,46,0.00,,FEW010,0.00,VWS V14.01,2013-02-12 07:30:00,
2013-02-11 23:35:00,48.0,28.2,30.06,NW,317,0.0,0.0,46,0.00,,FEW010,0.00,VWS V14.01,2013-02-12 07:35:00,
2013-02-11 23:40:00,48.0,28.2,30.06,NW,317,0.0,0.0,46,0.00,,FEW010,0.00,VWS V14.01,2013-02-12 07:40:00,
2013-02-11 23:45:00,48.0,28.2,30.06,NW,317,0.0,0.0,46,0.00,,FEW010,0.00,VWS V14.01,2013-02-12 07:45:00,
2013-02-11 23:50:00,48.0,28.8,30.06,NW,317,0.0,0.0,47,0.00,,FEW010,0.00,VWS V14.01,2013-02-12 07:50:00,
2013-02-11 23:55:00,48.0,28.8,30.06,NW,317,0.0,0.0,47,0.00,,FEW010,0.00,VWS V14.01,2013-02-12 07:55:00,